Location: Alterswil
(46.7959°N, 7.2588°E)
Time: 10:49:36
(UTC+00:00)

Daily predictions for brighter satellites

Satellite Brightness Start Highest point End
(mag) Time Altitude Azimuth Time Altitude Azimuth Time Altitude Azimuth
BREEZE-M DEB (TANK) 3.4 19:26:56 10° SSW 19:30:02 44° SE 19:38:56 10° ENE
Cosmos 1076 Rocket 3.5 19:31:33 10° S 19:35:51 68° E 19:40:13 10° NNE
Resurs 01 Rocket 2.1 19:32:41 10° SE 19:36:56 47° ENE 19:41:13 10° N
Cosmos 1689 Rocket 3.0 19:34:34 10° N 19:37:15 48° WNW 19:39:55 10° SSW
SL-16 R/B 2.7 19:35:07 10° NNW 19:40:38 49° ENE 19:46:06 10° SE
ATLAS 5 CENTAUR R/B 4.2 19:40:27 10° NNW 19:43:47 17° NNE 19:47:27 10° ENE
Terra 3.9 19:41:54 10° E 19:44:02 13° ENE 19:46:11 10° NNE
RESURS DK-1 3.8 19:40:49 10° SW 19:44:48 44° NW 19:48:49 10° NNE
Meteor 2-3 Rocket 4.1 19:41:21 10° SSE 19:46:42 45° E 19:52:08 10° NNE
Cosmos 332 Rocket 3.9 19:42:30 10° NNW 19:47:25 74° ENE 19:52:19 10° SSE
SPOT 3 Rocket 3.9 19:42:39 10° SE 19:47:42 52° ENE 19:52:46 10° N
Cosmos 1933 3.6 19:48:36 10° N 19:52:34 52° ENE 19:56:30 10° SSE
Cosmos 1271 Rocket 3.2 19:49:57 10° N 19:53:49 46° ENE 19:57:41 10° SSE
Gbstr 26 Del rocket 2.7 19:50:51 10° WNW 19:54:34 78° SSW 19:58:12 12° ESE
Cosmos 1538 Rocket 4.1 19:50:35 10° SSW 19:55:47 82° WNW 20:01:00 10° NNE
IRS-1A Rocket 4.5 19:50:37 10° S 19:56:06 73° WSW 20:01:38 10° NNW
OBJECT-B 3.3 19:54:30 10° SSW 19:57:04 22° W 19:59:39 10° NW
SPOT 5 4.2 19:57:34 10° ESE 20:00:48 21° ENE 20:04:09 10° NNE
IGS 5A 3.4 19:56:58 10° SSE 20:01:06 84° ENE 20:05:16 10° NNW
Cosmos 2098 Rocket 3.0 19:57:56 10° SSW 20:01:10 64° W 20:05:07 10° N
ARIANE 5 R/B 3.9 19:58:58 11° ESE 20:02:25 26° ENE 20:06:07 10° N
Meteor 2-19 Rocket 4.4 19:56:32 10° S 20:02:32 70° E 20:08:34 10° NNE
Ariane Rocket 3.5 20:01:46 10° S 20:06:47 62° WSW 20:11:49 10° NNW
Landsat 7 3.8 20:03:30 10° SSE 20:08:15 87° ENE 20:13:03 10° NNW
Cosmos 1782 3.2 20:04:37 10° N 20:08:31 46° ENE 20:11:43 14° SSE
Cosmos 2082 Rocket 3.7 20:07:25 10° WSW 20:12:42 40° NW 20:18:03 10° NNE
Cosmos 304 Rocket 4.0 20:08:10 10° NNW 20:12:57 71° WSW 20:17:42 10° SSE
Cosmos 220 Rocket 4.4 20:11:09 10° NNW 20:15:23 49° ENE 20:18:36 17° SE
ATLAS 3B R/B 3.7 20:12:55 10° NW 20:19:35 43° WSW 20:26:27 10° S
Cosmos 2360 Rocket 2.8 20:14:16 10° NNW 20:19:42 45° NE 20:23:55 16° ESE
ATLAS 2AS CENTAUR R/B 4.4 20:14:26 10° WSW 20:21:50 42° NW 20:29:00 10° NE
MetOp-B 4.2 20:18:48 10° SSE 20:24:06 90° NE 20:29:30 10° NNW
Cosmos 1092 Rocket 4.0 20:20:02 10° S 20:26:19 89° E 20:32:41 10° N
ISS -1.4 20:28:14 10° W 20:30:20 16° SW 20:32:13 11° S
Cosmos 2151 3.8 20:27:06 10° SSW 20:31:15 52° WNW 20:35:26 10° N
NOSS 2-1 (C) 3.1 20:28:09 10° SSW 20:31:20 43° SE 20:34:30 10° NE
ERS-2 3.5 20:30:50 10° N 20:34:17 40° WNW 20:37:42 10° SW
Cosmos 2026 Rocket 4.0 20:28:59 10° S 20:35:19 85° E 20:41:36 10° N
Cosmos 2084 3.2 20:32:50 10° SSW 20:36:51 68° SE 20:41:00 10° NE
COSMOS 2455 3.9 20:34:51 19° SE 20:37:23 25° ESE 20:42:08 10° NE
Cosmos 1812 3.0 20:34:49 10° N 20:38:36 50° ENE 20:40:31 25° SE
NOSS 2-1 (D) 2.8 20:35:49 10° SSW 20:39:04 54° SE 20:42:20 10° NE
GP-B 3.0 20:35:53 10° N 20:40:22 83° E 20:44:01 15° S
Cosmos 1980 Rocket 4.5 20:36:43 10° WNW 20:40:32 19° W 20:44:21 10° SW
Cosmos 2333 Rocket 3.2 20:35:33 10° NNW 20:40:43 35° NE 20:44:24 17° ESE
Cosmos 923 Rocket 4.3 20:36:36 10° SSW 20:41:56 75° WNW 20:47:19 10° NNE
BREEZE-M DEB (TANK) 4.3 20:39:11 10° WNW 20:42:47 52° SSW 20:49:45 19° SE
SPOT 1/Viking Rocket 3.8 20:38:27 13° S 20:43:04 71° WSW 20:48:19 10° NNW
ERS-1 Rocket 3.2 20:40:25 21° SE 20:43:36 56° ENE 20:48:31 10° N
USA 245 3.6 20:42:07 17° S 20:45:51 78° WSW 20:49:44 10° NNW
SL-27 R/B 2.7 20:44:42 26° SSE 20:46:22 47° ESE 20:49:51 10° NNE
Okean 3 Rocket 3.5 20:48:05 14° S 20:51:59 86° E 20:56:33 10° N
USA 276 3.8 20:50:08 10° W 20:52:36 21° SW 20:53:10 20° SSW
Cosmos 1408 Rocket 3.9 20:50:55 27° SSE 20:52:54 46° E 20:57:03 10° NNE
Cosmos 2237 Rocket 4.4 20:49:36 10° N 20:52:54 15° NE 20:56:12 10° ENE
Cosmos 2056 Rocket 3.5 20:47:43 10° NNW 20:53:06 84° ENE 20:56:16 25° SSE
Meteor 2-14 Rocket 4.4 20:48:52 15° S 20:54:04 68° E 21:00:11 10° NNE
Cosmos 2322 Rocket 2.4 20:48:31 10° NNW 20:54:06 65° WSW 20:57:55 21° S
CARTOSAT-1 3.7 20:59:31 23° S 21:02:09 68° WSW 21:06:29 10° NNW
Meteor 1-10 Rocket 4.2 20:58:47 10° N 21:04:20 67° ENE 21:07:16 28° SSE
USA 234 4.5 20:58:39 10° ENE 21:04:38 39° N 21:10:37 10° NW
Spot 2 Rocket 3.7 21:03:04 21° S 21:06:32 67° WSW 21:11:38 10° NNW
Cosmos 2219 Rocket 2.7 21:06:16 10° NNW 21:11:41 47° ENE 21:14:26 26° ESE
Resurs 01 Rocket 3.9 21:10:26 10° SW 21:13:40 20° W 21:16:55 10° NW
Cosmos 1371 Rocket 4.4 21:09:35 10° NNW 21:14:53 59° WSW 21:17:55 25° S
BREEZE M DEB (TANK) 4.0 21:11:24 10° SW 21:15:25 62° SSE 21:40:35 10° ENE
Cosmos 1680 Rocket 4.3 21:10:52 10° SW 21:16:00 51° WNW 21:21:08 10° NNE
Cosmos 1515 Rocket 3.5 21:14:29 10° N 21:18:56 88° E 21:20:37 38° S
Cosmos 1151 Rocket 4.2 21:14:52 10° NNW 21:18:57 39° W 21:21:48 18° SSW
Terra 1.7 21:19:00 35° SSE 21:21:03 87° ENE 21:25:50 10° NNW
Cosmos 1553 Rocket 4.2 21:16:17 10° NNW 21:22:19 66° W 21:26:23 22° S
Cosmos 2266 Rocket 4.0 21:19:57 28° SSE 21:23:11 63° E 21:29:23 10° NNE
Cosmos 2285 Rocket 4.4 21:17:06 10° NNW 21:23:16 52° ENE 21:26:17 29° ESE
SL-16 R/B 3.7 21:19:39 10° NW 21:24:29 30° WSW 21:28:20 14° SSW
Cosmos 2315 Rocket 4.3 21:21:59 10° N 21:28:11 54° ENE 21:30:56 32° SE
ATLAS 5 CENTAUR R/B 2.9 21:24:20 10° NNW 21:29:35 48° NE 21:33:06 24° ESE
Cosmos 2333 4.1 21:25:20 10° NNW 21:30:59 87° ENE 21:33:17 37° SSE
Cosmos 2228 Rocket 3.4 21:30:02 10° N 21:34:22 52° ENE 21:35:16 44° ESE
NOSS 2-1 (E) 4.1 21:34:13 10° WSW 21:37:20 41° NW 21:40:40 10° NNE
SPOT 5 3.4 21:36:47 28° SSW 21:38:37 43° W 21:42:52 10° NNW
ARIANE 5 R/B 3.8 21:36:31 22° SSW 21:38:44 36° W 21:42:51 10° NNW
COSMOS 2428 2.9 21:33:39 10° NNW 21:39:19 61° ENE 21:41:31 36° SE
Cosmos 1862 4.4 21:39:48 20° SW 21:42:05 40° WNW 21:45:52 10° N
Cosmos 883 Rocket 4.4 21:36:49 10° N 21:43:05 81° E 21:45:47 37° SSE
NOSS 3-1 (C) 4.1 21:37:29 10° NW 21:45:00 79° SW 21:49:24 33° SSE
Cosmos 292 Rocket 4.2 21:41:02 10° NNW 21:45:40 53° WSW 21:47:10 37° SSW
IRIDIUM 106 4.3 21:41:49 10° N 21:47:02 67° E 21:48:29 46° SSE
Cosmos 1048 Rocket 4.0 21:48:39 48° SSE 21:49:39 56° ESE 21:54:40 10° NNE
S3M 4.5 21:48:10 10° NNW 21:54:26 58° W 21:57:51 27° SSW
Cosmos 1655 Rocket 4.3 21:54:13 23° SSW 21:58:17 67° W 22:04:42 10° N
COSMOS 2487 2.6 22:00:10 67° NNW 22:00:10 67° NNW 22:03:15 10° NNE
ALOS 2 4.0 21:59:22 25° E 22:00:06 26° ENE 22:03:44 10° N
USA 229 DEB 3.9 21:53:35 10° NW 22:00:57 88° NE 22:04:27 37° SE
USA 229 3.9 21:53:41 10° NW 22:01:03 87° NE 22:04:33 37° SE
Cosmos 972 Rocket 3.9 21:59:17 40° SSW 22:01:15 89° WNW 22:06:15 10° NNE
Cosmos 1805 Rocket 3.4 22:02:11 67° SSE 22:02:42 79° E 22:07:09 10° NNE
Cosmos 2360 Rocket 3.4 21:58:36 10° NW 22:03:30 31° WSW 22:05:41 24° SW
Cosmos 2084 Rocket 4.2 22:04:23 10° NNW 22:08:24 45° NE 22:09:18 39° ENE
USA 267 3.3 22:06:22 10° ENE 22:12:45 52° SE 22:14:48 39° S
Cosmos 1500 Rocket 4.4 22:11:54 33° SW 22:13:22 46° WNW 22:17:41 10° N
Cosmos 1980 4.3 22:10:11 10° NNW 22:15:40 48° ENE 22:17:31 36° ESE
NOSS 0 Rocket 4.0 22:10:37 10° NNW 22:16:53 71° ENE 22:18:54 44° SE
NOSS 3-1 (A) 4.1 22:13:57 10° NW 22:21:29 76° SW 22:25:00 40° SSE
COSMOS 2455 3.2 22:17:53 15° SW 22:22:50 65° NW 22:28:52 10° NNE
Meteor 1-27 Rocket 4.4 22:18:24 10° NNW 22:23:47 46° W 22:25:47 33° SW
Lacrosse 5 2.9 22:25:50 31° E 22:25:50 31° E 22:28:57 10° ENE
Meteor 1-20 Rocket 4.1 22:23:03 51° S 22:24:34 90° W 22:30:19 10° N
Cosmos 2333 Rocket 2.8 22:19:47 10° NW 22:25:06 43° WSW 22:26:23 37° SW
Cosmos 1452 Rocket 4.0 22:20:12 10° NNW 22:25:14 47° WSW 22:26:16 41° SW
Nadezhda 2 Rocket 4.5 22:23:24 48° S 22:25:18 77° E 22:31:45 10° NNE
COBE Rocket 3.6 22:26:51 70° SSW 22:27:20 81° WSW 22:32:04 10° NNW
Cosmos 972 4.5 22:28:19 57° S 22:29:29 84° ESE 22:34:39 10° NNE
BREEZE-M R/B 3.2 22:27:13 10° WSW 22:31:56 43° ENE 22:35:13 10° ENE
Cosmos 2297 Rocket 2.8 22:32:07 38° ESE 22:32:07 38° ESE 22:37:14 10° NE
Cosmos 2322 4.4 22:26:52 10° NW 22:32:11 40° WSW 22:33:25 36° SW
Cosmos 1500 3.9 22:34:30 46° NE 22:34:30 46° NE 22:37:30 10° NNE
Sich 1 3.2 22:34:10 60° WSW 22:34:32 63° WNW 22:38:51 10° N
Cosmos 1244 Rocket 4.4 22:34:47 52° S 22:36:27 85° E 22:42:42 10° N
Cosmos 2237 Rocket 2.4 22:32:27 10° NNW 22:38:08 65° ENE 22:39:29 49° ESE
Cosmos 1470 Rocket 4.3 22:43:08 41° ENE 22:43:08 41° ENE 22:46:42 10° NNE
Cosmos 1633 Rocket 3.0 22:44:03 75° ENE 22:44:03 75° ENE 22:48:11 10° NNE
BREEZE-M DEB (TANK) 4.1 22:40:46 10° WNW 22:42:20 20° W 22:42:20 20° W
Cosmos 2227 Rocket 3.0 22:44:30 35° E 22:44:30 35° E 22:49:25 10° NE
USA 234 3.4 22:42:59 24° ESE 22:47:05 70° NNE 22:53:37 10° NW
Cosmos 1110 Rocket 4.2 22:42:21 10° NNW 22:47:35 58° WSW 22:48:10 54° SW
APEX 4.3 22:48:05 50° SSW 22:49:46 87° WNW 22:56:31 10° NNE
Cosmos 1331 Rocket 4.1 22:44:55 10° NNW 22:50:04 60° WSW 22:50:32 58° SW
Cosmos 1666 Rocket 3.6 22:50:45 74° W 22:50:48 74° W 22:55:16 10° N
Cosmos 1340 Rocket 4.3 22:54:24 28° ENE 22:54:24 28° ENE 22:56:54 10° NNE
Cosmos 2219 Rocket 3.3 22:50:36 10° NW 22:55:24 30° WSW 22:56:08 29° WSW
NOSS 2-2 (E) 4.4 22:53:25 10° NW 22:58:50 89° NE 23:00:50 50° SE
Terra 4.2 22:57:53 10° WSW 22:59:27 12° W 23:01:12 10° WNW
Spot 4 4.3 23:03:05 48° WSW 23:03:18 48° W 23:08:00 10° NNW
SL-16 R/B 3.1 23:02:13 10° NNW 23:07:37 42° NE 23:09:38 31° E
Meteor 1-18 Rocket 4.4 23:04:05 10° NNW 23:09:49 60° W 23:10:44 53° SW
ATLAS 5 CENTAUR R/B 2.9 23:08:58 10° NW 23:14:18 41° WSW 23:14:35 41° SW
Cosmos 1862 Rocket 4.0 23:10:11 10° NNW 23:14:06 54° WNW 23:14:06 54° WNW
COSMOS 2428 4.2 23:18:46 10° NW 23:23:07 23° WSW 23:23:31 23° WSW
NOSS 2-2 (C) 4.3 23:18:27 10° NW 23:23:49 78° SW 23:25:11 57° SSE
Intercosmos 25 Rocket 4.4 23:24:02 42° E 23:24:02 42° E 23:29:14 10° NNE
Meteor 2-4 Rocket 3.8 23:18:14 10° NNW 23:24:07 67° W 23:24:59 59° SW
Cosmos 1666 3.5 23:26:25 51° NNW 23:26:25 51° NNW 23:29:28 10° N
Meteor 1-11 Rocket 4.0 23:25:58 49° ESE 23:26:26 50° E 23:31:45 10° NNE
Cosmos 1703 Rocket 3.7 23:25:36 10° N 23:29:38 69° NE 23:29:38 69° NE
Cosmos 1709 Rocket 4.0 23:30:39 56° SSE 23:31:54 70° E 23:38:16 10° NNE
PSLV R/B 4.1 23:29:37 10° NNE 23:34:07 54° E 23:34:07 54° E
Cosmos 1992 Rocket 3.9 23:30:56 10° NNW 23:36:12 77° ENE 23:36:41 70° ESE
ALOS 2 3.7 23:36:46 35° W 23:36:46 35° W 23:40:21 10° NNW
Meteor 1-5 Rocket 4.3 23:35:45 58° SW 23:36:47 71° WNW 23:42:41 10° N
Cosmos 909 Rocket 4.2 23:36:14 55° S 23:37:49 75° ESE 23:45:34 10° NE
Cosmos 1745 Rocket 4.2 23:39:17 49° SW 23:40:46 64° WNW 23:47:03 10° N
Cosmos 2219 3.2 23:42:23 60° SW 23:43:25 78° WNW 23:49:14 10° NNE
CZ-2D R/B 4.3 23:41:19 10° NE 23:44:11 14° E 23:45:32 13° ESE
Cosmos 1066 Rocket 4.2 23:41:49 10° N 23:47:44 82° E 23:48:43 63° SSE
Meteor 1-13 Rocket 4.1 23:45:57 10° NNW 23:51:44 81° W 23:52:26 68° SSW
Timation 1 Rocket 4.2 23:51:21 63° SSW 23:52:24 90° WNW 23:58:26 10° NNE
